Regional Weather Roundup
Issued by NWS Grand Forks, ND

Home | Current Version | Previous Version | Graphics & Text | Print | Product List | Glossary On
Versions: 1 2 3 4 5 6 7 8 9 10 11 12 13 14 15 16 17 18 19 20 21 22 23 24 25 26 27 28 29 30 31 32 33 34 35 36 37 38 39 40 41 42 43 44 45 46 47 48 49 50
000
ASUS43 KFGF 030210
RWRFGF
PRAIRIE TO PINES  WEATHER ROUNDUP
NATIONAL WEATHER SERVICE EASTERN NORTH DAKOTA/GRAND FORKS ND
900 PM CDT TUE JUN 02 2015

 **SATELLITE DATA USED TO AUGMENT SKY COVER AT AUTOMATED STATIONS**
 *****  WEATHER ACROSS EASTERN NORTH DAKOTA  *****

CITY           SKY/WX    TMP DP  RH WIND       PRES   REMARKS
GRAND FORKS    CLOUDY    63  61  93 N15       29.75S
GRAND FRKS AFB CLOUDY    62  60  94 NE10      29.76S
GRAND FRKS NWS   N/A     61 N/A N/A NE14        N/A
DEVILS LAKE    CLOUDY    61  55  82 NE14      29.77R
FARGO          CLOUDY    77  63  61 SE13      29.68F
WAHPETON ARPT  CLOUDY    75  59  57 S10       29.73R
$$

 ***** WEATHER ACROSS CENTRAL AND WESTERN NORTH DAKOTA  *****

CITY           SKY/WX    TMP DP  RH WIND       PRES   REMARKS
BISMARCK       PTCLDY    69  65  86 SE6       29.74R
MINOT          LGT RAIN  61  57  87 NW7       29.79R
JAMESTOWN      CLOUDY    70  65  84 NW9       29.70R
MINOT AFB      HVY RAIN  57  57 100 N23G29    29.80R
GARRISON         N/A     65  61  87 CALM      29.74R
WILLISTON      CLOUDY    57  54  89 N15       29.87R
DICKINSON      CLOUDY    58  51  78 NW16      29.80S
HETTINGER      CLEAR     65  55  70 NW12      29.83R
$$

 *****  OTHER AIRPORT OBSERVATIONS IN OUR AREA  *****

CITY           SKY/WX    TMP DP  RH WIND       PRES   REMARKS
WALHALLA       FAIR      61  61 100 MISG      29.83R
GRAFTON AIRPOR CLOUDY    61  61 100 NE13      29.78S FOG
VALLEY CITY AR FAIR      72  68  88 E7        29.68F
CANDO          CLOUDY    59  59 100 NE14      29.79F
CAVALIER APRT  CLOUDY    63  61  94 NE8       29.81R
GWINNER        NOT AVBL
SHEYENNE NWR     N/A     76  63  63 SE8       29.95S
ROLLA          CLOUDY    55  55 100 NE16      29.83F
 ***** THE ABOVE OBSERVATIONS ARE NON NWS ARE NOT QUALITY
       CONTROLLED AND MAY MIS-REPORT RAIN FOR SNOW...
$$

  *****  WEATHER ACROSS NORTHERN MINNESOTA  *****

CITY           SKY/WX    TMP DP  RH WIND       PRES   REMARKS
FLAG ISLAND    LGT RAIN  59  57  94 S5        29.83R
WARROAD        RAIN      59  55  88 SE3       29.84S
ROSEAU         LGT RAIN  61  55  82 E7        29.81F
HALLOCK        MOCLDY    61  61 100 E6        29.79S
THF RVR FALLS  CLOUDY    64  61  88 NE10      29.77F
BAUDETTE       CLOUDY    60  58  92 N6        29.84R
WASKISH        CLOUDY    64  57  77 CALM      29.82S
CROOKSTON      MOCLDY    66  63  88 NE7       29.75S
STEPHEN NDAWN    N/A     61  61 100 NE7         N/A
GREENBUSH NDAW   N/A     61  61 100 E12         N/A
$$
  *****  WEATHER ACROSS CENTRAL AND WEST MINNESOTA  *****

CITY           SKY/WX    TMP DP  RH WIND       PRES   REMARKS
FOSSTON        CLOUDY    66  57  72 SE6       29.77F
BEMIDJI        MOCLDY    67  53  61 SE10      29.81S
PARK RAPIDS    MOCLDY    69  54  58 SE10      29.81S
ELBOW LAKE     CLOUDY    74  58  58 SE15      29.77R
WADENA         CLOUDY    72  52  49 SE12      29.81S
DETROIT LAKES  LGT RAIN  70  59  68 SE9       29.78S
MOORHEAD       CLOUDY    75  63  64 SE14      29.71S
FERGUS FALLS   CLOUDY    75  59  57 S13       29.76R
MORRIS MN      MOCLDY    75  59  57 S13       29.78R
STAPLES        MOCLDY    72  48  43 S6        29.83R
$$
  *****  WEATHER ELSEWHERE ACROSS MINNESOTA  *****

CITY           SKY/WX    TMP DP  RH WIND       PRES   REMARKS
DULUTH         CLOUDY    56  41  57 SE8       29.94S
INTRNTL FALLS  LGT RAIN  60  57  89 SE7       29.86S
ELY            CLOUDY    68  46  45 S9        29.90S
CLOQUET        RAIN      55  43  62 E3        29.94R
WHEATON        PTCLDY    75  61  60 SE12      29.76R
BRAINERD       PTCLDY    67  54  63 SE8       29.85F
HIBBING        CLOUDY    64  55  72 S6        29.89F
ALEXANDRIA     CLOUDY    72  55  55 SE12      29.83R
SAINT CLOUD    CLEAR     70  52  52 SE12      29.85F
MINNEAPOLIS    PTCLDY    72  52  49 SE13      29.91R
$$

  *****  WEATHER ACROSS SOUTH DAKOTA  *****

CITY           SKY/WX    TMP DP  RH WIND       PRES   REMARKS
SIOUX FALLS    MOCLDY    74  61  63 S13       29.82R
BROOKINGS      PTCLDY    73  61  64 S15       29.81S
WATERTOWN      MOCLDY    74  60  61 S14G25    29.77R
HURON          MOCLDY    78  61  55 S16G25    29.73R
SISSETON         N/A     77  62  59 S15       29.72R
ABERDEEN       PTCLDY    80  64  58 SW14      29.68R
MITCHELL       MOCLDY    78  63  59 S13G21    29.75S
PIERRE         CLOUDY    75  62  64 NW9       29.72R
MOBRIDGE       MOCLDY    78  66  66 NE6       29.70S
RAPID CITY     CLOUDY    64  56  75 CALM      29.84F
$$

  *****  SOME WEATHER IN NEARBY STATES *****

CITY           SKY/WX    TMP DP  RH WIND       PRES   REMARKS
GLASGOW MT     CLOUDY    60  52  74 NE6       29.93R
GREAT FALLS MT TSTM      55  52  89 E9        29.93S
CHEYENNE WY    PTCLDY    73  51  46 N6        29.96R
SCOTTSBLUFF NE PTCLDY    69  49  48 NE14      29.83R
OMAHA NE       PTCLDY    69  58  67 SE16G24   29.90F
DES MOINES IA  MOCLDY    68  55  63 S10       29.97S
DAVENPORT IA   PTCLDY    64  50  60 SE7       30.03F
CHICAGO IL     MOCLDY    59  44  57 E9        30.09R
EAU CLAIRE WI  PTCLDY    67  48  50 S10       29.97F
LA CROSSE WI   PTCLDY    68  51  54 SE9       29.99S
$$

  *****  SOME NATIONAL WEATHER *****

CITY           SKY/WX    TMP DP  RH WIND       PRES   REMARKS
LA GUARDIA NY  LGT RAIN  54  49  83 NE9       30.18R
RALEIGH NC     LGT RAIN  70  67  90 SE7       29.98F
ATLANTA GA     TSTM      71  62  73 N12       29.96R
NEW ORLEANS LA PTCLDY    83  58  42 CALM      29.92R
OKLAHOMA CITY  PTCLDY    77  66  68 S10       29.89F
ALBUQUERQUE NM PTCLDY    87  18   8 CALM      29.98S
SALT LAKE CITY PTCLDY    75  47  36 N9        29.90S
LOS ANGELES CA MOSUNNY   64  58  80 W10       29.93S
BOISE ID       MOSUNNY   68  44  42 N6        29.92S
SEATTLE WA     CLOUDY    59  50  72 S8        30.06R
$$

*** WEATHER ACROSS MANITOBA...SASKATCHEWAN AND ONTARIO ***
                ***ONTARIO***

CITY           SKY/WX    TMP DP  RH WIND       PRES   REMARKS
GERALDTON      PTCLDY    55  34  44 S7        29.98R
THUNDER BAY    LGT RAIN  52  39  62 E7        29.97F
SIOUX LOOKOUT  LGT RAIN  55  54  94 S6        29.89R FOG
TORONTO        CLEAR     55  45  67 E6        30.20R
BIG TROUT LK   CLEAR     57  37  47 N6        29.78S
PICKLE LAKE    CLOUDY    63  52  67 SW8       29.83S
DRYDEN         LGT RAIN  55  55 100 SE3       29.87S FOG
KENORA         LGT RAIN  57  57 100 SE7       29.85S VSB 1
$$
                *** MANITOBA***

CITY           SKY/WX    TMP DP  RH WIND       PRES   REMARKS
BRANDON        CLOUDY    59  41  51 NE14      29.87R
DAUPHIN        MOCLDY    59  34  38 N9        29.92S
ISLAND LAKE    PTCLDY    55  36  47 NW6       29.85S
PILOT MOUND      N/A     57  48  72 NE9         N/A
THE PAS        PTCLDY    59  30  33 N8        29.94S
THOMPSON       PTCLDY    52  30  43 NW7G17    29.90R
WINNIPEG       CLOUDY    59  32  36 NE18      29.87R
LYNN LAKE      CLEAR     52  28  40 NW12G21   29.93S
CHURCHILL      LGT RAIN  37  36  93 W23       29.62R
GILLAM         MOCLDY    46  34  61 W18G29    29.81S
$$
                ***SASKATCHEWAN***

CITY           SKY/WX    TMP DP  RH WIND       PRES   REMARKS
ESTEVAN        LGT RAIN  55  52  88 NE12      29.90R
KINDERSLEY     CLOUDY    61  30  31 E12       29.98R
LLOYDMINSTER   CLOUDY    57  34  41 E12       29.98F
PRINCE ALBERT  MOCLDY    63  30  29 N5        29.97S
REGINA         CLOUDY    61  36  39 NE6       29.94R
YORKTON        CLEAR     63  39  42 E6        29.93R
N. BATTLEFORD  PTSUNNY   57  39  51 E5        30.01S
LA RONGE       NOT AVBL
SASKATOON      MOCLDY    59  32  36 NE7       29.99F
SWIFT CURRENT  PTCLDY    57  37  47 E6        29.96R
$$
NOTE: THESE ARE AUTOMATED STATIONS WITH LIMITED QUALITY CONTROL
      "FAIR" INDICATES FEW OR NO CLOUDS BELOW 12,000 FEET WITH NO
      SIGNIFICANT WEATHER AND/OR OBSTRUCTIONS TO VISIBILITY.
      SKY/WX - SKY CONDITION AND SIGNIFICANT WEATHER.
      TMP - AIR TEMPERATURE.    DP   - DEWPOINT TEMPERATURE.
      RH  - RELATIVE HUMIDITY.  PRES - PRESSURE.
      HX  - HEAT INDEX.         WCI  - WIND CHILL INDEX.
$



USA.gov is the U.S. government's official web portal to all federal, state and local government web resources and services.